Location: Clermont
(50.2608°N, 4.3172°E)
Time: 07:26:30
(UTC+00:00)

COSMOS 2428 - Pass Details

Date: 13 August 2020
Orbit: 844 x 859 km, 70.9° (Epoch: 27 September)

Event Time Altitude Azimuth Distance (km) Brightness Sun altitude
Rises 22:54:53 0° 328° (NNW) 3,436 7.1 -24.4°
Reaches altitude 10° 22:57:21 10° 326° (NNW) 2,498 6.1 -24.5°
Maximum altitude 23:03:03 67° 246° (WSW) 932 2.8 -24.7°
Enters shadow 23:03:49 59° 204° (SSW) 983 2.7 -24.7°
